Troy, MI

8:01 AM EDT on September 25, 2017 (GMT -0400)
Troy

Weather History for KVLL - February, 2013

Change the Weather History Date:

Monday, February 11, 2013

  Actual Average (KDET) Record (KDET)
Temperature  
Mean Temperature 40 °F -  
Max Temperature 46 °F 31 °F 68 °F (1999)
Min Temperature 35 °F 17 °F -2 °F (1982)
Degree Days  
Heating Degree Days 24    
Moisture  
Dew Point 32 °F    
Average Humidity 73    
Maximum Humidity 90    
Minimum Humidity 59    
Precipitation  
Precipitation 0.00 in - - ()
Sea Level Pressure  
Sea Level Pressure 29.69 in    
Wind  
Wind Speed 12 mph (SW)    
Max Wind Speed 26 mph    
Max Gust Speed 38 mph    
Visibility 10 miles    
Events      
Averages and records for this station are not official NWS values.
T = Trace of Precipitation, MM = Missing Value Source: NWS Daily Summary

Daily Weather History Graph

Daily Weather History Graph

Search for Another Location

Airport or City:

Trip Planner

Search our weather history database for the weather conditions in past years. The results will help you decide how hot, cold, wet, or windy it might be!

Date:

Astronomy

Feb. 11, 2013 Rise Set
Actual Time 7:34 AM EST 5:59 PM EST
Civil Twilight 7:05 AM EST 6:29 PM EST
Nautical Twilight 6:32 AM EST 7:02 PM EST
Astronomical Twilight 5:59 AM EST 7:34 PM EST
Moon 7:55 AM EST (2/11) 7:59 PM EST (2/11)
Length of Visible Light 11h 23m
Length of Day
10h 25m
Waxing Crescent, 3% of the Moon is Illuminated
Feb 11
Waxing Crescent
Feb 17
First Quarter
Feb 25
Full
Mar 4
Last Quarter
Mar 11
New

Hourly Weather History & Observations

Time (EST) Temp. Windchill Dew Point Humidity Pressure Visibility Wind Dir Wind Speed Gust Speed Precip Events Conditions
12:14 AM 41.2 °F 39.2 °F 36.9 °F 85% 29.72 in 10.0 mi SSE 3.5 mph - N/A   Overcast
12:35 AM 41.2 °F - 37.4 °F 86% 29.71 in 10.0 mi Calm Calm - N/A   Overcast
12:54 AM 41.9 °F 38.2 °F 37.8 °F 85% 29.71 in 10.0 mi South 5.8 mph - N/A   Overcast
1:15 AM 43.5 °F 39.4 °F 38.8 °F 84% 29.70 in 10.0 mi South 6.9 mph - N/A   Overcast
1:34 AM 43.3 °F 38.1 °F 39.0 °F 85% 29.68 in 10.0 mi South 9.2 mph - N/A   Overcast
1:54 AM 43.3 °F 39.2 °F 39.2 °F 85% 29.68 in 10.0 mi South 6.9 mph - N/A   Overcast
2:15 AM 43.7 °F 39.1 °F 39.7 °F 86% 29.66 in 10.0 mi South 8.1 mph - N/A   Overcast
2:34 AM 44.2 °F 39.7 °F 40.6 °F 87% 29.66 in 10.0 mi South 8.1 mph - N/A   Overcast
2:54 AM 44.6 °F 40.2 °F 41.0 °F 87% 29.65 in 10.0 mi South 8.1 mph - N/A   Overcast
3:15 AM 45.0 °F 40.6 °F 41.5 °F 88% 29.65 in 10.0 mi South 8.1 mph - N/A   Overcast
3:34 AM 45.5 °F 41.3 °F 42.1 °F 88% 29.65 in 10.0 mi South 8.1 mph - N/A   Overcast
3:54 AM 45.7 °F 41.5 °F 42.4 °F 88% 29.63 in 10.0 mi South 8.1 mph - N/A   Overcast
4:15 AM 45.7 °F 41.5 °F 42.6 °F 89% 29.62 in 10.0 mi South 8.1 mph - N/A   Overcast
4:34 AM 45.5 °F 40.8 °F 42.4 °F 89% 29.61 in 7.0 mi South 9.2 mph - N/A   Overcast
4:54 AM 45.5 °F 41.3 °F 42.8 °F 90% 29.60 in 7.0 mi South 8.1 mph - N/A   Overcast
5:15 AM 45.7 °F 41.5 °F 42.8 °F 90% 29.59 in 7.0 mi South 8.1 mph - N/A   Overcast
5:34 AM 45.5 °F 40.8 °F 42.8 °F 90% 29.58 in 7.0 mi South 9.2 mph - N/A   Overcast
5:55 AM 46.0 °F 41.4 °F 43.3 °F 90% 29.57 in 10.0 mi South 9.2 mph 16.1 mph N/A   Overcast
6:14 AM 46.4 °F 41.9 °F 43.3 °F 89% 29.57 in 10.0 mi South 9.2 mph - N/A   Overcast
6:55 AM 44.2 °F 39.2 °F 40.6 °F 87% 29.58 in 10.0 mi SW 9.2 mph 16.1 mph N/A   Overcast
7:14 AM 45.0 °F 40.1 °F 40.6 °F 85% 29.58 in 10.0 mi SW 9.2 mph - N/A   Overcast
7:35 AM 45.7 °F 40.6 °F 40.5 °F 82% 29.58 in 10.0 mi SW 10.4 mph 16.1 mph N/A   Overcast
7:54 AM 45.5 °F 39.2 °F 38.7 °F 77% 29.59 in 10.0 mi WSW 13.8 mph 24.2 mph N/A   Overcast
8:14 AM 45.5 °F 38.1 °F 34.0 °F 64% 29.60 in 10.0 mi SW 18.4 mph 32.2 mph N/A   Overcast
8:35 AM 44.6 °F 36.6 °F 31.6 °F 60% 29.59 in 10.0 mi SW 19.6 mph 29.9 mph N/A   Overcast
8:54 AM 44.2 °F 37.0 °F 31.8 °F 62% 29.60 in 10.0 mi SW 16.1 mph 25.3 mph N/A   Overcast
9:14 AM 43.9 °F 34.3 °F 31.6 °F 62% 29.60 in 10.0 mi SW 26.5 mph 38.0 mph N/A   Overcast
9:35 AM 43.7 °F 34.5 °F 31.6 °F 63% 29.60 in 10.0 mi WSW 24.2 mph 32.2 mph N/A   Overcast
9:54 AM 42.8 °F 34.3 °F 30.9 °F 63% 29.61 in 10.0 mi WSW 19.6 mph 38.0 mph N/A   Overcast
10:14 AM 42.1 °F 32.8 °F 31.1 °F 65% 29.61 in 10.0 mi WSW 21.9 mph 31.1 mph N/A   Overcast
10:35 AM 41.9 °F 33.4 °F 30.2 °F 63% 29.61 in 10.0 mi WSW 18.4 mph 28.8 mph N/A   Overcast
10:54 AM 41.0 °F 31.6 °F 30.4 °F 66% 29.62 in 10.0 mi WSW 20.7 mph 31.1 mph N/A   Overcast
11:15 AM 39.6 °F 29.5 °F 29.7 °F 68% 29.63 in 10.0 mi WSW 21.9 mph 36.8 mph N/A   Overcast
11:34 AM 39.4 °F 29.0 °F 27.7 °F 63% 29.64 in 10.0 mi WSW 23.0 mph 32.2 mph N/A   Overcast
11:54 AM 39.4 °F 29.5 °F 27.1 °F 62% 29.64 in 10.0 mi WSW 20.7 mph 29.9 mph N/A   Overcast
12:15 PM 39.6 °F 30.3 °F 26.6 °F 60% 29.63 in 10.0 mi SW 18.4 mph 31.1 mph N/A   Overcast
12:34 PM 39.2 °F 28.7 °F 27.1 °F 62% 29.64 in 10.0 mi WSW 23.0 mph 35.7 mph N/A   Overcast
12:55 PM 38.8 °F 28.8 °F 27.1 °F 63% 29.63 in 10.0 mi WSW 20.7 mph 32.2 mph N/A   Overcast
1:14 PM 39.2 °F 30.2 °F 26.1 °F 59% 29.64 in 10.0 mi SW 17.3 mph 32.2 mph N/A   Overcast
1:34 PM 39.0 °F 28.8 °F 26.2 °F 60% 29.65 in 10.0 mi WSW 21.9 mph 32.2 mph N/A   Overcast
1:54 PM 38.8 °F 30.8 °F 25.9 °F 60% 29.65 in 10.0 mi WSW 13.8 mph 31.1 mph N/A   Overcast
2:14 PM 39.0 °F 29.9 °F 26.6 °F 61% 29.65 in 10.0 mi WSW 17.3 mph 31.1 mph N/A   Overcast
2:34 PM 39.2 °F 29.6 °F 26.6 °F 61% 29.66 in 10.0 mi WSW 19.6 mph 33.4 mph N/A   Overcast
2:54 PM 38.7 °F 28.8 °F 26.6 °F 62% 29.67 in 10.0 mi WSW 19.6 mph 29.9 mph N/A   Overcast
3:14 PM 38.7 °F 28.8 °F 26.6 °F 62% 29.67 in 10.0 mi WSW 19.6 mph 32.2 mph N/A   Overcast
3:34 PM 38.7 °F 28.8 °F 27.0 °F 63% 29.68 in 10.0 mi WSW 19.6 mph 31.1 mph N/A   Overcast
3:55 PM 38.5 °F 28.6 °F 27.0 °F 63% 29.69 in 10.0 mi West 19.6 mph 29.9 mph N/A   Overcast
4:14 PM 38.5 °F 30.7 °F 27.5 °F 65% 29.70 in 10.0 mi WSW 12.7 mph 32.2 mph N/A   Overcast
4:34 PM 38.3 °F 29.7 °F 27.7 °F 66% 29.71 in 10.0 mi WSW 15.0 mph 31.1 mph N/A   Overcast
4:54 PM 38.3 °F 29.3 °F 27.9 °F 66% 29.72 in 10.0 mi WSW 16.1 mph 27.6 mph N/A   Overcast
5:54 PM 37.8 °F 29.8 °F 28.0 °F 68% 29.73 in 10.0 mi West 12.7 mph 33.4 mph N/A   Overcast
6:14 PM 37.8 °F 26.6 °F 28.0 °F 68% 29.75 in 10.0 mi WSW 24.2 mph 31.1 mph N/A   Overcast
6:34 PM 37.6 °F 28.4 °F 28.2 °F 69% 29.77 in 10.0 mi WSW 16.1 mph 26.5 mph N/A   Overcast
6:54 PM 37.4 °F 25.6 °F 28.4 °F 70% 29.78 in 10.0 mi West 26.5 mph 33.4 mph N/A   Overcast
7:14 PM 37.4 °F 26.6 °F 28.4 °F 70% 29.79 in 10.0 mi WSW 21.9 mph 33.4 mph N/A   Overcast
7:34 PM 37.4 °F 27.8 °F 28.4 °F 70% 29.80 in 10.0 mi WSW 17.3 mph 32.2 mph N/A   Overcast
7:55 PM 36.9 °F 27.5 °F 28.2 °F 71% 29.80 in 10.0 mi WSW 16.1 mph 29.9 mph N/A   Overcast
8:14 PM 36.9 °F 28.7 °F 27.5 °F 69% 29.80 in 10.0 mi West 12.7 mph 26.5 mph N/A   Overcast
8:34 PM 36.9 °F 26.8 °F 26.6 °F 66% 29.81 in 10.0 mi West 18.4 mph 29.9 mph N/A   Overcast
8:54 PM 36.5 °F 26.0 °F 26.8 °F 68% 29.81 in 10.0 mi West 19.6 mph 31.1 mph N/A   Overcast
9:14 PM 36.5 °F 25.2 °F 27.0 °F 68% 29.82 in 10.0 mi West 23.0 mph 29.9 mph N/A   Overcast
9:35 PM 36.3 °F 25.8 °F 26.8 °F 68% 29.83 in 10.0 mi West 19.6 mph 31.1 mph N/A   Overcast
9:54 PM 36.1 °F 26.2 °F 26.6 °F 68% 29.83 in 10.0 mi West 17.3 mph 26.5 mph N/A   Overcast
10:14 PM 36.0 °F 25.3 °F 27.0 °F 70% 29.83 in 10.0 mi West 19.6 mph 28.8 mph N/A   Overcast
10:34 PM 35.8 °F 25.7 °F 27.3 °F 71% 29.84 in 10.0 mi West 17.3 mph 24.2 mph N/A   Overcast
10:54 PM 35.6 °F 26.6 °F 27.9 °F 73% 29.84 in 10.0 mi West 13.8 mph 29.9 mph N/A   Overcast
11:15 PM 35.6 °F 24.8 °F 27.9 °F 73% 29.85 in 10.0 mi West 19.6 mph 24.2 mph N/A   Overcast
11:34 PM 35.6 °F 25.9 °F 27.5 °F 72% 29.86 in 10.0 mi West 16.1 mph 21.9 mph N/A   Overcast
11:54 PM 35.4 °F 26.8 °F 27.5 °F 73% 29.87 in 10.0 mi West 12.7 mph 21.9 mph N/A   Overcast